GW3995 Weather Reports


Display with metric or nautical units.
time (UTC)temp
F
wind
direction
speed
MPH
gust
MPH
rain 1hr
in
rain 24hr
in
rain mn
in
humidity
%
barometer
mb
20260901034417 75 360 0.0 0.0 0.00 0.00 0.00 87 1018.8
20260901033918 75 360 0.0 0.0 0.00 0.00 0.00 86 1018.7
20260901033418 75 360 0.0 0.0 0.00 0.00 0.00 86 1018.8
20260901032917 75 360 0.0 0.0 0.00 0.00 0.00 86 1018.8
20260901032417 75 360 0.0 0.0 0.00 0.00 0.00 86 1018.7
20260901031917 75 360 0.0 0.0 0.00 0.00 0.00 86 1018.7
20260901031417 75 360 0.0 0.0 0.00 0.00 0.00 86 1018.8
20260901030919 75 360 0.0 0.0 0.00 0.00 0.00 85 1018.7
20260901030417 75 360 0.0 0.0 0.00 0.00 0.00 85 1018.7
20260901025917 75 360 0.0 0.0 0.00 0.00 0.00 85 1018.7
20260901025417 75 360 0.0 0.0 0.00 0.00 0.00 84 1018.8
20260901024917 75 360 0.0 0.0 0.00 0.00 0.00 84 1018.8
20260901024417 75 360 0.0 0.0 0.00 0.00 0.00 84 1018.8
20260901023917 75 360 0.0 0.0 0.00 0.00 0.00 83 1018.8
20260901023417 75 360 0.0 0.0 0.00 0.00 0.00 84 1018.8
20260901022917 75 360 0.0 0.0 0.00 0.00 0.00 83 1018.8
20260901022417 75 279 0.0 1.0 0.00 0.00 0.00 83 1018.9
20260901021917 75 360 0.0 0.0 0.00 0.00 0.00 82 1018.8
20260901021417 76 360 0.0 0.0 0.00 0.00 0.00 81 1018.8
20260901020917 76 360 0.0 0.0 0.00 0.00 0.00 81 1018.8
20260901020417 76 360 0.0 0.0 0.00 0.00 0.00 81 1018.8
20260901015918 76 360 0.0 0.0 0.00 0.00 0.00 81 1018.8
20260901015417 76 360 0.0 0.0 0.00 0.00 0.00 80 1018.7
20260901014917 76 360 0.0 0.0 0.00 0.00 0.00 80 1018.7
20260901014417 76 360 0.0 0.0 0.00 0.00 0.00 81 1018.8
20260901013917 76 360 0.0 0.0 0.00 0.00 0.00 80 1018.7
20260901013417 77 360 0.0 0.0 0.00 0.00 0.00 79 1018.6
20260901012917 77 360 0.0 0.0 0.00 0.00 0.00 80 1018.5
20260901012417 77 360 0.0 0.0 0.00 0.00 0.00 79 1018.5
20260901011917 77 360 0.0 0.0 0.00 0.00 0.00 79 1018.5
20260901011417 77 360 0.0 0.0 0.00 0.00 0.00 79 1018.4
20260901010917 77 360 0.0 0.0 0.00 0.00 0.00 78 1018.3
20260901010417 78 360 0.0 0.0 0.00 0.00 0.00 78 1018.2
20260901005917 78 360 0.0 0.0 0.00 0.00 0.00 80 1018.2
20260901005418 78 360 0.0 0.0 0.00 0.00 0.00 78 1018.2
20260901004917 78 360 0.0 0.0 0.00 0.00 0.00 78 1018.1
20260901004417 78 54 1.0 1.0 0.00 0.00 0.00 78 1018.0
20260901003919 79 360 0.0 0.0 0.00 0.00 0.00 76 1018.0
20260901003417 79 58 0.0 0.0 0.00 0.00 0.00 76 1017.9
20260901002917 79 360 0.0 0.0 0.00 0.00 0.00 77 1017.8
20260901002417 79 51 0.0 1.0 0.00 0.00 0.00 77 1017.8
20260901001917 80 76 1.0 2.0 0.00 0.00 0.00 80 1017.8
20260901001418 80 62 1.0 3.0 0.00 0.00 0.00 75 1017.8
20260901000917 80 57 2.0 4.0 0.00 0.00 0.00 77 1017.8
20260901000417 80 91 1.0 1.0 0.00 0.00 0.00 74 1017.8
20260831235917 81 77 1.0 1.0 0.00 0.00 0.00 74 1017.7
20260831235417 81 75 0.0 1.0 0.00 0.00 0.00 75 1017.7
20260831234918 81 106 0.0 2.0 0.00 0.00 0.00 74 1017.7
20260831234417 82 360 0.0 0.0 0.00 0.00 0.00 71 1017.7
20260831233917 82 360 0.0 0.0 0.00 0.00 0.00 70 1017.7
20260831233417 82 85 0.0 1.0 0.00 0.00 0.00 68 1017.7
20260831232917 83 360 0.0 0.0 0.00 0.00 0.00 69 1017.7
20260831232417 83 360 0.0 0.0 0.00 0.00 0.00 67 1017.7
20260831231918 83 113 0.0 1.0 0.00 0.00 0.00 66 1017.6
20260831231417 84 360 0.0 0.0 0.00 0.00 0.00 71 1017.6
20260831230918 84 360 0.0 0.0 0.00 0.00 0.00 69 1017.6
20260831230417 84 83 1.0 2.0 0.00 0.00 0.00 70 1017.6
20260831225917 85 71 1.0 2.0 0.00 0.00 0.00 66 1017.5
20260831225418 86 83 0.0 1.0 0.00 0.00 0.00 67 1017.5
20260831224917 86 257 0.0 2.0 0.00 0.00 0.00 65 1017.6
20260831224417 87 196 0.0 2.0 0.00 0.00 0.00 64 1017.6
20260831223917 88 360 0.0 0.0 0.00 0.00 0.00 63 1017.6
20260831223417 88 331 0.0 1.0 0.00 0.00 0.00 55 1017.6
20260831222919 89 76 0.0 1.0 0.00 0.00 0.00 64 1017.7
20260831222417 91 360 0.0 0.0 0.00 0.00 0.00 62 1017.7
20260831221917 91 360 0.0 0.0 0.00 0.00 0.00 50 1017.7
20260831221417 92 360 0.0 0.0 0.00 0.00 0.00 56 1017.6
20260831220917 92 268 0.0 2.0 0.00 0.00 0.00 50 1017.5
20260831220418 92 277 1.0 3.0 0.00 0.00 0.00 55 1017.5
20260831215917 93 53 1.0 2.0 0.00 0.00 0.00 53 1017.6
20260831215417 93 360 0.0 0.0 0.00 0.00 0.00 49 1017.6
20260831214917 94 68 0.0 2.0 0.00 0.00 0.00 53 1017.6
20260831214417 94 274 2.0 4.0 0.00 0.00 0.00 43 1017.6
20260831213920 94 131 0.0 2.0 0.00 0.00 0.00 45 1017.7
20260831213417 95 284 0.0 2.0 0.00 0.00 0.00 44 1017.7
20260831212919 95 35 0.0 2.0 0.00 0.00 0.00 51 1017.8
20260831212416 95 268 0.0 1.0 0.00 0.00 0.00 45 1017.9
20260831211917 95 277 1.0 2.0 0.00 0.00 0.00 43 1017.9
20260831211417 95 191 0.0 2.0 0.00 0.00 0.00 44 1017.9
20260831210917 94 66 1.0 2.0 0.00 0.00 0.00 46 1017.8
20260831210418 94 51 2.0 3.0 0.00 0.00 0.00 48 1017.8
20260831205917 95 103 0.0 1.0 0.00 0.00 0.00 46 1017.8
20260831205417 94 252 0.0 1.0 0.00 0.00 0.00 44 1017.9
20260831204918 95 65 2.0 4.0 0.00 0.00 0.00 45 1018.0
20260831204417 95 280 2.0 5.0 0.00 0.00 0.00 45 1018.0
20260831203917 94 242 1.0 2.0 0.00 0.00 0.00 43 1018.0
20260831203417 94 66 1.0 4.0 0.00 0.00 0.00 50 1018.0
20260831202917 95 360 0.0 0.0 0.00 0.00 0.00 45 1018.1
20260831202417 94 46 1.0 3.0 0.00 0.00 0.00 49 1018.1
20260831201917 94 62 2.0 2.0 0.00 0.00 0.00 50 1018.1
20260831201417 94 66 1.0 2.0 0.00 0.00 0.00 47 1018.2
20260831200917 95 63 1.0 3.0 0.00 0.00 0.00 52 1018.2
20260831200417 95 87 0.0 0.0 0.00 0.00 0.00 48 1018.2
20260831195918 95 264 2.0 4.0 0.00 0.00 0.00 45 1018.2
20260831195417 95 360 0.0 0.0 0.00 0.00 0.00 53 1018.3
20260831194918 94 61 1.0 4.0 0.00 0.00 0.00 48 1018.3
20260831194417 94 293 0.0 1.0 0.00 0.00 0.00 55 1018.4
20260831193920 93 360 0.0 0.0 0.00 0.00 0.00 50 1018.5
20260831193417 93 269 1.0 4.0 0.00 0.00 0.00 48 1018.4
20260831192917 93 84 1.0 2.0 0.00 0.00 0.00 48 1018.6
20260831192417 94 69 1.0 2.0 0.00 0.00 0.00 54 1018.6
20260831191918 94 360 0.0 0.0 0.00 0.00 0.00 55 1018.7
20260831191417 93 57 0.0 2.0 0.00 0.00 0.00 55 1018.7
20260831190918 94 52 0.0 1.0 0.00 0.00 0.00 53 1018.8
20260831190417 95 65 0.0 2.0 0.00 0.00 0.00 51 1018.8
20260831185919 95 261 0.0 2.0 0.00 0.00 0.00 43 1018.9
20260831185417 94 244 0.0 1.0 0.00 0.00 0.00 42 1018.9
20260831184918 94 252 1.0 2.0 0.00 0.00 0.00 46 1019.0
20260831184417 94 230 0.0 0.0 0.00 0.00 0.00 48 1019.0
20260831183917 94 208 0.0 2.0 0.00 0.00 0.00 47 1019.1
20260831183421 95 268 0.0 1.0 0.00 0.00 0.00 51 1019.2
20260831182918 94 360 0.0 0.0 0.00 0.00 0.00 52 1019.3
20260831182417 93 67 1.0 3.0 0.00 0.00 0.00 50 1019.2
20260831181917 93 246 1.0 3.0 0.00 0.00 0.00 46 1019.3
20260831181419 92 360 0.0 0.0 0.00 0.00 0.00 57 1019.4
20260831180917 93 360 0.0 0.0 0.00 0.00 0.00 55 1019.4
20260831180417 93 64 2.0 4.0 0.00 0.00 0.00 51 1019.4
20260831175918 93 242 2.0 5.0 0.00 0.00 0.00 46 1019.4
20260831175418 93 252 1.0 4.0 0.00 0.00 0.00 48 1019.4
20260831174917 92 360 0.0 0.0 0.00 0.00 0.00 57 1019.5
20260831174418 92 63 1.0 2.0 0.00 0.00 0.00 57 1019.5
20260831173917 91 298 0.0 1.0 0.00 0.00 0.00 54 1019.5
20260831173417 91 62 1.0 5.0 0.00 0.00 0.00 58 1019.6
20260831172917 90 360 0.0 0.0 0.00 0.00 0.00 60 1019.6
20260831172417 89 312 0.0 1.0 0.00 0.00 0.00 60 1019.7
20260831171918 91 74 1.0 2.0 0.00 0.00 0.00 55 1019.7
20260831171418 91 59 1.0 3.0 0.00 0.00 0.00 63 1019.7
20260831170917 90 6 1.0 2.0 0.00 0.00 0.00 59 1019.7
20260831170418 91 64 1.0 2.0 0.00 0.00 0.00 61 1019.8
20260831165918 90 91 0.0 2.0 0.00 0.00 0.00 57 1019.8
20260831165417 90 360 0.0 0.0 0.00 0.00 0.00 60 1019.8
20260831164917 90 260 0.0 1.0 0.00 0.00 0.00 58 1019.8
20260831164417 89 82 1.0 2.0 0.00 0.00 0.00 64 1019.8
20260831163917 89 58 1.0 3.0 0.00 0.00 0.00 64 1019.8
20260831163417 89 248 2.0 3.0 0.00 0.00 0.00 60 1019.9
20260831162917 88 260 1.0 3.0 0.00 0.00 0.00 63 1020.0
20260831162418 88 69 1.0 2.0 0.00 0.00 0.00 65 1020.0
20260831161917 88 48 0.0 2.0 0.00 0.00 0.00 65 1020.0
20260831161417 88 273 2.0 4.0 0.00 0.00 0.00 62 1020.0
20260831160918 88 156 0.0 1.0 0.00 0.00 0.00 69 1020.2
20260831160418 88 14 0.0 1.0 0.00 0.00 0.00 65 1020.2
20260831155917 87 231 1.0 6.0 0.00 0.00 0.00 67 1020.3
20260831155418 87 360 0.0 0.0 0.00 0.00 0.00 69 1020.3
20260831154917 86 360 0.0 0.0 0.00 0.00 0.00 72 1020.3
20260831154417 87 65 1.0 2.0 0.00 0.00 0.00 72 1020.3
20260831153917 86 252 1.0 5.0 0.00 0.00 0.00 69 1020.4
20260831153417 87 235 1.0 2.0 0.00 0.00 0.00 69 1020.5
20260831152918 86 251 0.0 2.0 0.00 0.00 0.00 69 1020.6
20260831152418 86 258 3.0 5.0 0.00 0.00 0.00 70 1020.6
20260831151917 86 214 1.0 3.0 0.00 0.00 0.00 70 1020.6
20260831151419 85 59 1.0 2.0 0.00 0.00 0.00 77 1020.7
20260831150918 85 220 1.0 2.0 0.00 0.00 0.00 71 1020.7
20260831150419 85 83 0.0 2.0 0.00 0.00 0.00 71 1020.7
20260831145918 84 206 1.0 4.0 0.00 0.00 0.00 73 1020.7
20260831145417 84 62 1.0 2.0 0.00 0.00 0.00 75 1020.7
20260831144920 84 86 0.0 2.0 0.00 0.00 0.00 75 1020.6
20260831144417 84 232 2.0 5.0 0.00 0.00 0.00 75 1020.6
20260831143919 83 64 1.0 6.0 0.00 0.00 0.00 76 1020.7
20260831143418 83 57 2.0 6.0 0.00 0.00 0.00 79 1020.7
20260831142917 82 68 1.0 2.0 0.00 0.00 0.00 80 1020.6
20260831142420 83 211 1.0 2.0 0.00 0.00 0.00 78 1020.6
20260831141918 83 223 1.0 8.0 0.00 0.00 0.00 77 1020.5
20260831141418 82 82 1.0 2.0 0.00 0.00 0.00 81 1020.5
20260831140918 81 211 2.0 3.0 0.00 0.00 0.00 82 1020.4
20260831140418 80 211 2.0 4.0 0.00 0.00 0.00 82 1020.3
20260831135918 80 214 0.0 1.0 0.00 0.00 0.00 84 1020.3
20260831135418 80 58 2.0 4.0 0.00 0.00 0.00 84 1020.2
20260831134920 80 64 2.0 5.0 0.00 0.00 0.00 85 1020.2
20260831134422 80 210 2.0 6.0 0.00 0.00 0.00 83 1020.2
20260831133917 79 72 1.0 4.0 0.00 0.00 0.00 86 1020.2
20260831133419 77 97 1.0 2.0 0.00 0.00 0.00 87 1020.3
20260831132918 76 123 1.0 2.0 0.00 0.00 0.00 90 1020.3
20260831132418 75 114 1.0 2.0 0.00 0.00 0.00 91 1020.4
20260831131917 75 166 1.0 2.0 0.00 0.00 0.00 94 1020.3
20260831131417 74 84 1.0 1.0 0.00 0.00 0.00 98 1020.4
20260831130917 73 71 2.0 2.0 0.00 0.00 0.00 99 1020.4
20260831130418 72 66 2.0 2.0 0.00 0.00 0.00 99 1020.4
20260831125917 71 86 1.0 1.0 0.00 0.00 0.00 100 1020.4
20260831125417 71 360 0.0 0.0 0.00 0.00 0.00 99 1020.5
20260831124918 71 360 0.0 0.0 0.00 0.00 0.00 100 1020.5
20260831124417 71 88 0.0 1.0 0.00 0.00 0.00 100 1020.5
20260831123918 70 140 1.0 1.0 0.00 0.00 0.00 100 1020.4
20260831123418 70 142 1.0 1.0 0.00 0.00 0.00 100 1020.4
20260831122917 70 78 1.0 1.0 0.00 0.00 0.00 100 1020.4
20260831122418 69 360 0.0 0.0 0.00 0.00 0.00 100 1020.4
20260831121920 69 360 0.0 0.0 0.00 0.00 0.00 99 1020.3
20260831121417 69 83 0.0 0.0 0.00 0.00 0.00 99 1020.3
20260831120917 69 360 0.0 0.0 0.00 0.00 0.00 99 1020.4
20260831120418 69 360 0.0 0.0 0.00 0.00 0.00 99 1020.4
20260831115918 69 360 0.0 0.0 0.00 0.00 0.00 99 1020.3
20260831115417 69 75 0.0 0.0 0.00 0.00 0.00 99 1020.4
20260831114917 69 360 0.0 0.0 0.00 0.00 0.00 99 1020.3
20260831114418 69 360 0.0 0.0 0.00 0.00 0.00 99 1020.3
20260831113917 69 360 0.0 0.0 0.00 0.00 0.00 99 1020.3
20260831113417 68 360 0.0 0.0 0.00 0.00 0.00 99 1020.3
20260831112917 68 360 0.0 0.0 0.00 0.00 0.00 99 1020.3
20260831112425 68 360 0.0 0.0 0.00 0.00 0.00 99 1020.3
20260831111918 68 85 0.0 1.0 0.00 0.00 0.00 99 1020.2
20260831111417 68 360 0.0 0.0 0.00 0.00 0.00 99 1020.2
20260831110917 68 360 0.0 0.0 0.00 0.00 0.00 99 1020.2
20260831110418 68 360 0.0 0.0 0.00 0.00 0.00 99 1020.2
20260831105917 68 360 0.0 0.0 0.00 0.00 0.00 99 1020.2
20260831105417 68 360 0.0 0.0 0.00 0.00 0.00 99 1020.2
20260831104917 68 73 0.0 1.0 0.00 0.00 0.00 99 1020.2
20260831104417 68 360 0.0 0.0 0.00 0.00 0.00 99 1020.2
20260831103917 68 360 0.0 0.0 0.00 0.00 0.00 99 1020.1
20260831103417 68 360 0.0 0.0 0.00 0.00 0.00 99 1020.0
20260831102918 68 360 0.0 0.0 0.00 0.00 0.00 99 1020.0
20260831102421 68 360 0.0 0.0 0.00 0.00 0.00 99 1020.0
20260831101917 68 360 0.0 0.0 0.00 0.00 0.00 99 1019.9
20260831101417 68 360 0.0 0.0 0.00 0.00 0.00 99 1019.9
20260831100917 68 360 0.0 0.0 0.00 0.00 0.00 99 1019.9
20260831100417 68 360 0.0 0.0 0.00 0.00 0.00 99 1019.8
20260831095917 68 360 0.0 0.0 0.00 0.00 0.00 99 1019.9
20260831095417 68 360 0.0 0.0 0.00 0.00 0.00 99 1019.9
20260831094917 68 360 0.0 0.0 0.00 0.00 0.00 99 1019.9
20260831094417 68 360 0.0 0.0 0.00 0.00 0.00 99 1019.9
20260831093917 68 360 0.0 0.0 0.00 0.00 0.00 99 1019.9
20260831093417 68 360 0.0 0.0 0.00 0.00 0.00 99 1019.8
20260831092918 68 360 0.0 0.0 0.00 0.00 0.00 99 1019.8
20260831092417 68 360 0.0 0.0 0.00 0.00 0.00 99 1019.8
20260831091917 68 360 0.0 0.0 0.00 0.00 0.00 99 1019.8
20260831091416 68 360 0.0 0.0 0.00 0.00 0.00 99 1019.7
20260831090917 68 360 0.0 0.0 0.00 0.00 0.00 99 1019.7
20260831090418 68 360 0.0 0.0 0.00 0.00 0.00 99 1019.7
20260831085917 68 360 0.0 0.0 0.00 0.00 0.00 99 1019.7
20260831085418 68 360 0.0 0.0 0.00 0.00 0.00 99 1019.8
20260831084931 68 50 0.0 0.0 0.00 0.00 0.00 99 1019.8
20260831084417 69 360 0.0 0.0 0.00 0.00 0.00 99 1019.8
20260831083917 69 360 0.0 0.0 0.00 0.00 0.00 99 1019.7
20260831083417 69 360 0.0 0.0 0.00 0.00 0.00 99 1019.7
20260831082918 69 360 0.0 0.0 0.00 0.00 0.00 99 1019.8
20260831082418 69 360 0.0 0.0 0.00 0.00 0.00 99 1019.8
20260831081919 69 360 0.0 0.0 0.00 0.00 0.00 99 1019.8
20260831081417 69 360 0.0 0.0 0.00 0.00 0.00 99 1019.7
20260831080918 69 74 0.0 0.0 0.00 0.00 0.00 99 1019.7
20260831080416 69 360 0.0 0.0 0.00 0.00 0.00 99 1019.8
20260831075917 69 360 0.0 0.0 0.00 0.00 0.00 99 1019.8
20260831075417 69 360 0.0 0.0 0.00 0.00 0.00 99 1019.8
20260831074917 69 360 0.0 0.0 0.00 0.00 0.00 99 1019.8
20260831074417 69 360 0.0 0.0 0.00 0.00 0.00 99 1019.8
20260831073917 69 360 0.0 0.0 0.00 0.00 0.00 99 1019.8
20260831073416 69 360 0.0 0.0 0.00 0.00 0.00 99 1019.9
20260831072917 69 360 0.0 0.0 0.00 0.00 0.00 99 1019.9
20260831072417 69 360 0.0 0.0 0.00 0.00 0.00 99 1019.9
20260831071917 69 360 0.0 0.0 0.00 0.00 0.00 99 1020.0
20260831071417 69 360 0.0 0.0 0.00 0.00 0.00 99 1020.0
20260831070917 69 360 0.0 0.0 0.00 0.00 0.00 99 1020.1
20260831070417 69 360 0.0 0.0 0.00 0.00 0.00 99 1020.1
20260831065918 69 360 0.0 0.0 0.00 0.00 0.00 99 1020.1
20260831065417 69 360 0.0 0.0 0.00 0.00 0.00 99 1020.2
20260831064917 69 360 0.0 0.0 0.00 0.00 0.00 99 1020.2
20260831064418 69 360 0.0 0.0 0.00 0.00 0.00 99 1020.2
20260831063917 69 360 0.0 0.0 0.00 0.00 0.00 99 1020.1
20260831063417 70 360 0.0 0.0 0.00 0.00 0.00 99 1020.1
20260831062917 70 360 0.0 0.0 0.00 0.00 0.00 99 1020.2
20260831062418 70 360 0.0 0.0 0.00 0.00 0.00 99 1020.2
20260831061917 70 360 0.0 0.0 0.00 0.00 0.00 99 1020.2
20260831061419 70 360 0.0 0.0 0.00 0.00 0.00 99 1020.2
20260831060918 70 360 0.0 0.0 0.00 0.00 0.00 99 1020.2
20260831060418 70 360 0.0 0.0 0.00 0.00 0.00 99 1020.2
20260831055917 70 360 0.0 0.0 0.00 0.00 0.00 99 1020.1
20260831055417 70 69 0.0 0.0 0.00 0.00 0.00 99 1020.2
20260831054917 70 360 0.0 0.0 0.00 0.00 0.00 98 1020.2
20260831054418 70 360 0.0 0.0 0.00 0.00 0.00 98 1020.2
20260831053917 70 360 0.0 0.0 0.00 0.00 0.00 98 1020.2
20260831053417 70 360 0.0 0.0 0.00 0.00 0.00 98 1020.3
20260831052917 70 360 0.0 0.0 0.00 0.00 0.00 98 1020.3
20260831052418 70 360 0.0 0.0 0.00 0.00 0.00 98 1020.3
20260831051917 70 360 0.0 0.0 0.00 0.00 0.00 98 1020.4
20260831051418 70 360 0.0 0.0 0.00 0.00 0.00 98 1020.3
20260831050917 70 360 0.0 0.0 0.00 0.00 0.00 98 1020.4
20260831050418 70 360 0.0 0.0 0.00 0.00 0.00 98 1020.3
20260831045917 71 360 0.0 0.0 0.00 0.00 0.00 98 1020.3
20260831045417 71 360 0.0 0.0 0.00 0.00 0.00 98 1020.3
20260831044916 71 360 0.0 0.0 0.00 0.00 0.00 98 1020.4
20260831044417 71 360 0.0 0.0 0.00 0.00 0.00 98 1020.4
20260831043917 71 360 0.0 0.0 0.00 0.00 0.00 98 1020.4
20260831043417 71 360 0.0 0.0 0.00 0.00 0.00 98 1020.4
20260831042917 71 360 0.0 0.0 0.00 0.00 0.00 98 1020.4
20260831042417 71 360 0.0 0.0 0.00 0.00 0.00 98 1020.4
20260831041917 71 360 0.0 0.0 0.00 0.00 0.00 98 1020.4
20260831041417 71 360 0.0 0.0 0.00 0.00 0.00 98 1020.4
20260831040917 71 360 0.0 0.0 0.00 0.00 0.00 98 1020.5
20260831040417 71 360 0.0 0.0 0.00 0.00 0.00 98 1020.4
20260831035918 71 360 0.0 0.0 0.00 0.00 0.00 98 1020.4
20260831035417 71 360 0.0 0.0 0.00 0.00 0.00 98 1020.4
20260831034917 71 360 0.0 0.0 0.00 0.00 0.00 98 1020.3